THORAD AGENA D DEB, 19238

Orbit data source: Space-Track

THORAD AGENA D DEB, 19238 is space debris in SSO originally from a launch on Wed, 08 Apr 1970 UTC launched from the Air Force Western Test Range (AFWTR). Debris objects in space refer to the collection of defunct objects orbiting the Earth. Examples of debris include non-operational satellites, rocket bodies, and fragments generated from explosions, collisions, or faulty payload assembly.

Loading next visibility...
Identifier
19238, 1970-025PT
Orbit
SSO
Country
Flag of USUS
Related business
Manufacturer
Unknown
Mission
Spacecraft
Bus & Motor
Unknown
Mass
Unknown
Launch date (UTC)
1970-04-08 (56 years ago)
Launch vehicle
Unknown
Launch site
Air Force Western Test Range (AFWTR)
Object type
Payload
Rocket body
Debris
Shape & HBR
Unknown shape, 0.1 m
Radar Cross Section
Medium (>0.1 m² and <1 m²)

Expand to show TLE details & history
Last TLE update: 14 hours ago

TLE from 14 hours ago
0 THORAD AGENA D DEB
1 19238U 70025PT  26169.02127462  .00000989  00000-0  98677-3 0  9991
2 19238  99.8730   2.6821 0044716  87.4693  65.7968 13.80275208940188
Epoch: 2026-06-18T00:30Z
TLE epoch observation values (Epoch: 2026-06-18T00:30:38.127Z)
Latitude
25.88119°
Longitude
-86.42886°
Altitude
952.628 km
Speed
7.384 km/s
True Right ascension
12h 30m 00s
True Declination
25° 44' 60"
Sunlit
Object was in daylight at epoch
Visualization orbit readout
Latitude
Unknown
Longitude
Unknown
Altitude
Unknown
Speed
Unknown
Apparent Right ascension
Unknown
Apparent Declination
Unknown
Sunlit
N/A
Visualization observer readout
Local Sidereal Time
01:17:06
Azimuth
Unknown
Elevation
Unknown
Doppler factor
Unknown
Orbital elements
Apogee altitude
992.995 km
Perigee altitude
927.367 km
Semi-major axis
7,338.318 km
Eccentricity
0.00447
Inclination
99.873°
RAAN
2.6821°
Arg. of periapsis
87.4693°
True anomaly
66.26523°
Mean anomaly
65.7968°
Eccentric anomaly
66.03091°
Mean motion
3.45262 °/min
Orbital period
104.27 mins
BSTAR
0.00098677

Documentation

Showing up to 5 results
|